Location: Cluj-Napoca
(46.7712°N, 23.6236°E)
Time: 14:56:27
(UTC+03:00)

N. Korean satellite - Visible Passes

Search period start: 28 September 2021 00:00
Search period end: 08 October 2021 00:00
Orbit: 449 x 498 km, 97.3° (Epoch: 27 September)

Date Brightness Start Highest point End Pass type
(mag) Time Alt. Az. Time Alt. Az. Time Alt. Az.
28 Sep 7.0 06:41:32 10° NNE 06:45:06 69° ESE 06:48:42 10° S visible
29 Sep 8.7 06:13:59 10° NNE 06:17:12 31° E 06:20:27 10° SSE visible
30 Sep 9.8 05:46:59 10° NE 05:49:12 15° E 05:51:25 10° SE visible
01 Oct 6.6 06:51:12 10° NNE 06:54:49 88° W 06:58:27 10° SSW visible
02 Oct 8.1 06:23:29 10° NNE 06:26:55 40° E 06:30:22 10° S visible
03 Oct 9.5 05:56:11 10° NE 05:58:54 20° E 06:01:37 10° SE visible
05 Oct 7.5 06:32:56 10° NNE 06:36:31 54° E 06:40:05 10° S visible
06 Oct 9.1 06:05:26 10° NE 06:08:30 25° E 06:11:34 10° SSE visible
07 Oct 10.0 05:38:42 10° ENE 05:40:21 13° E 05:42:01 10° ESE visible
